Date String (YYYY-MM-DD hh:mm:ss) UTC,Instrument flags,absolute air pressure of the measurement (hPa),sample flow rate (lpm),inlet stack bypass flow (lpm),air temperature of the measurement (°C),ambient temperature measured by the external sensor (°C),aerosol sample conditioner tube jacket temperature (°C),OPC LED temperature (°C),internal box temperature (°C),relative humidity of the measurement (%),span deviation,mass concentration of particles derived from Lorenz-Mie calculation of OPC scattering (μg/m³),mass concentration of particles derived from Lorenz-Mie calculation of OPC scattering (μg/m³),mass concentration of particles derived from Lorenz-Mie calculation of OPC scattering (μg/m³)
DateTimeUTC,F1_M11,P_M11,Q1_M11,Q2_M11,T1_M11,T2_M11,T3_M11,T4_M11,T5_M11,U1_M11,ZSPAN_M11,X0_M11,X2_M11,X1_M11
2023-07-19 22:00:00,SystemResetWarning,0836.2,5.02,000.00,031.9,025.8,000.0,038.4,031.4,34.2,0000.0,0009.49,0004.42,0003.74
2023-07-19 22:01:00,SystemResetWarning,0836.2,4.98,000.00,032.1,026.0,000.0,038.5,031.3,31.8,0000.0,0009.26,0004.40,0003.75
2023-07-19 22:02:00,SystemResetWarning,0836.3,5.00,000.00,032.1,026.4,000.0,038.7,031.3,29.3,0000.0,0008.96,0004.35,0003.74
2023-07-19 22:03:00,SystemResetWarning,0836.3,5.01,000.00,032.2,026.8,000.0,038.9,031.4,29.2,0000.0,0008.59,0004.34,0003.74
2023-07-19 22:04:00,SystemResetWarning,0836.4,5.01,000.00,032.2,027.2,000.0,039.0,031.4,32.7,0000.0,0008.52,0004.34,0003.75
2023-07-19 22:05:00,SystemResetWarning,0836.4,4.99,000.00,032.2,027.5,000.0,039.2,031.5,33.6,0000.0,0008.57,0004.29,0003.74
2023-07-19 22:06:00,SystemResetWarning,0836.4,5.00,000.00,032.3,027.7,000.0,039.3,031.6,31.9,0000.0,0008.66,0004.24,0003.74
2023-07-19 22:07:00,SystemResetWarning,0836.4,4.99,000.00,032.3,027.4,000.0,039.3,031.6,31.1,0000.0,0008.44,0004.23,0003.74
2023-07-19 22:08:00,SystemResetWarning,0836.4,4.99,000.00,032.3,025.9,000.0,039.3,031.4,28.6,0000.0,0008.17,0004.26,0003.75
2023-07-19 22:09:00,SystemResetWarning,0836.5,5.01,000.00,032.3,025.2,000.0,039.2,031.3,29.6,0000.0,0007.83,0004.25,0003.78
2023-07-19 22:10:00,SystemResetWarning,0836.5,5.01,000.00,032.1,025.3,000.0,039.3,031.1,29.4,0000.0,0007.97,0004.31,0003.80
2023-07-19 22:11:00,SystemResetWarning,0836.5,5.00,000.00,032.0,025.6,000.0,039.4,031.1,28.7,0000.0,0008.09,0004.36,0003.82
2023-07-19 22:12:00,SystemResetWarning,0836.5,5.00,000.00,031.9,026.1,000.0,039.4,031.1,29.0,0000.0,0008.77,0004.41,0003.83
2023-07-19 22:13:00,SystemResetWarning,0836.5,5.01,000.00,031.8,026.5,000.0,039.5,031.2,27.7,0000.0,0009.59,0004.42,0003.85
2023-07-19 22:14:00,SystemResetWarning,0836.4,4.99,000.00,031.8,027.0,000.0,039.5,031.3,27.1,0000.0,0009.97,0004.47,0003.87
2023-07-19 22:15:00,SystemResetWarning,0836.4,5.00,000.00,031.7,027.3,000.0,039.5,031.4,27.1,0000.0,0010.04,0004.53,0003.89
2023-07-19 22:16:00,SystemResetWarning,0836.3,5.00,000.00,031.7,027.6,000.0,039.5,031.5,27.4,0000.0,0010.02,0004.58,0003.91
2023-07-19 22:17:00,SystemResetWarning,0836.2,5.00,000.00,031.7,027.8,000.0,039.5,031.6,28.4,0000.0,0010.14,0004.66,0003.95
2023-07-19 22:18:00,SystemResetWarning,0836.2,4.98,000.00,031.7,027.0,000.0,039.4,031.5,27.6,0000.0,0010.60,0004.67,0003.98
2023-07-19 22:19:00,SystemResetWarning,0836.2,5.00,000.00,031.6,025.5,000.0,039.3,031.3,27.6,0000.0,0010.58,0004.65,0004.00
2023-07-19 22:20:00,SystemResetWarning,0836.3,5.00,000.00,031.5,025.1,000.0,039.2,031.1,28.0,0000.0,0010.66,0004.66,0004.00
2023-07-19 22:21:00,SystemResetWarning,0836.4,5.01,000.00,031.3,025.3,000.0,039.2,030.9,28.5,0000.0,0010.55,0004.63,0004.00
2023-07-19 22:22:00,SystemResetWarning,0836.5,5.01,000.00,031.2,025.8,000.0,039.2,031.0,29.8,0000.0,0010.20,0004.58,0004.00
2023-07-19 22:23:00,SystemResetWarning,0836.6,4.99,000.00,031.1,026.2,000.0,039.2,031.0,30.3,0000.0,0009.31,0004.52,0004.01
2023-07-19 22:24:00,SystemResetWarning,0836.6,4.99,000.00,031.0,026.6,000.0,039.2,031.1,30.9,0000.0,0008.46,0004.52,0004.03
2023-07-19 22:25:00,SystemResetWarning,0836.7,5.00,000.00,031.0,027.0,000.0,039.2,031.2,28.2,0000.0,0008.23,0004.56,0004.06
2023-07-19 22:26:00,SystemResetWarning,0836.8,5.00,000.00,031.0,027.4,000.0,039.2,031.3,29.7,0000.0,0008.37,0004.61,0004.08
2023-07-19 22:27:00,SystemResetWarning,0836.8,5.01,000.00,031.0,027.6,000.0,039.2,031.4,29.2,0000.0,0008.49,0004.64,0004.12
2023-07-19 22:28:00,SystemResetWarning,0836.8,4.99,000.00,031.0,027.9,000.0,039.2,031.4,30.3,0000.0,0008.23,0004.62,0004.12
2023-07-19 22:29:00,SystemResetWarning,0836.8,4.99,000.00,031.0,027.3,000.0,039.0,031.4,28.9,0000.0,0007.84,0004.62,0004.12
2023-07-19 22:30:00,SystemResetWarning,0836.8,5.00,000.00,030.9,025.8,000.0,038.9,031.1,28.9,0000.0,0007.79,0004.64,0004.13
2023-07-19 22:31:00,SystemResetWarning,0836.7,5.00,000.00,030.8,025.1,000.0,038.8,031.0,29.2,0000.0,0007.88,0004.69,0004.16
2023-07-19 22:32:00,SystemResetWarning,0836.6,5.01,000.00,030.7,025.2,000.0,038.7,030.8,28.7,0000.0,0008.02,0004.72,0004.18
2023-07-19 22:33:00,SystemResetWarning,0836.5,5.01,000.00,030.5,025.6,000.0,038.8,030.7,28.8,0000.0,0008.16,0004.76,0004.20
2023-07-19 22:34:00,SystemResetWarning,0836.4,4.99,000.00,030.4,026.1,000.0,038.8,030.8,28.8,0000.0,0008.26,0004.82,0004.22
2023-07-19 22:35:00,SystemResetWarning,0836.3,5.01,000.00,030.4,026.5,000.0,038.7,030.9,30.7,0000.0,0008.30,0004.85,0004.23
2023-07-19 22:36:00,SystemResetWarning,0836.2,5.00,000.00,030.4,026.9,000.0,038.7,031.0,30.9,0000.0,0008.22,0004.82,0004.23
2023-07-19 22:37:00,SystemResetWarning,0836.2,5.00,000.00,030.4,027.3,000.0,038.7,031.1,29.9,0000.0,0008.13,0004.79,0004.24
2023-07-19 22:38:00,SystemResetWarning,0836.3,5.00,000.00,030.4,027.6,000.0,038.7,031.2,30.8,0000.0,0008.04,0004.75,0004.23
2023-07-19 22:39:00,SystemResetWarning,0836.3,5.00,000.00,030.4,027.8,000.0,038.7,031.3,30.8,0000.0,0008.07,0004.78,0004.25
2023-07-19 22:40:00,SystemResetWarning,0836.3,4.97,000.00,030.4,027.5,000.0,038.6,031.3,34.8,0000.0,0008.19,0004.82,0004.26
2023-07-19 22:41:00,SystemResetWarning,0836.4,5.05,000.00,030.5,026.0,000.0,038.5,031.2,34.6,0000.0,0008.50,0004.83,0004.27
2023-07-19 22:42:00,SystemResetWarning,0836.4,4.96,000.00,030.6,025.1,000.0,038.4,031.1,34.1,0000.0,0009.23,0004.83,0004.27
2023-07-19 22:43:00,SystemResetWarning,0836.4,5.02,000.00,030.5,025.1,000.0,038.3,030.8,33.3,0000.0,0009.70,0004.85,0004.27
2023-07-19 22:44:00,SystemResetWarning,0836.4,5.00,000.00,030.4,025.5,000.0,038.4,030.7,32.7,0000.0,0009.69,0004.88,0004.27
2023-07-19 22:45:00,SystemResetWarning,0836.4,5.00,000.00,030.4,025.9,000.0,038.4,030.8,33.1,0000.0,0009.79,0004.89,0004.27
2023-07-19 22:46:00,SystemResetWarning,0836.4,4.99,000.00,030.4,026.4,000.0,038.5,030.9,34.1,0000.0,0009.97,0004.89,0004.27
2023-07-19 22:47:00,SystemResetWarning,0836.5,5.00,000.00,030.4,026.8,000.0,038.5,031.0,32.0,0000.0,0010.06,0004.93,0004.28
2023-07-19 22:48:00,SystemResetWarning,0836.4,5.00,000.00,030.4,027.2,000.0,038.5,031.1,30.9,0000.0,0009.95,0004.91,0004.29
2023-07-19 22:49:00,SystemResetWarning,0836.4,4.99,000.00,030.5,027.5,000.0,038.5,031.1,34.2,0000.0,0009.94,0004.92,0004.29
2023-07-19 22:50:00,SystemResetWarning,0836.4,5.01,000.00,030.5,027.7,000.0,038.6,031.2,34.6,0000.0,0010.83,0004.96,0004.30
2023-07-19 22:51:00,SystemResetWarning,0836.4,5.00,000.00,030.5,027.7,000.0,038.6,031.3,35.1,0000.0,0010.81,0004.94,0004.29
2023-07-19 22:52:00,SystemResetWarning,0836.4,4.99,000.00,030.7,026.3,000.0,038.4,031.2,34.8,0000.0,0010.84,0004.97,0004.30
2023-07-19 22:53:00,SystemResetWarning,0836.4,5.01,000.00,030.7,025.1,000.0,038.3,031.0,33.6,0000.0,0010.26,0005.01,0004.32
2023-07-19 22:54:00,SystemResetWarning,0836.4,5.01,000.00,030.7,025.0,000.0,038.3,030.8,31.9,0000.0,0009.78,0005.02,0004.35
2023-07-19 22:55:00,SystemResetWarning,0836.5,5.00,000.00,030.6,025.3,000.0,038.3,030.6,32.2,0000.0,0010.13,0005.01,0004.37
2023-07-19 22:56:00,SystemResetWarning,0836.5,4.99,000.00,030.6,025.7,000.0,038.4,030.7,32.3,0000.0,0010.81,0005.02,0004.38
2023-07-19 22:57:00,SystemResetWarning,0836.5,5.00,000.00,030.5,026.2,000.0,038.5,030.8,32.7,0000.0,0011.01,0005.02,0004.40
2023-07-19 22:58:00,SystemResetWarning,0836.5,4.99,000.00,030.5,026.6,000.0,038.5,030.9,33.6,0000.0,0011.02,0005.02,0004.40
2023-07-19 22:59:00,SystemResetWarning,0836.4,5.00,000.00,030.5,027.0,000.0,038.5,031.0,33.8,0000.0,0011.15,0005.07,0004.42
